This is the latest recevied weather packets stored in our database for station/object N4WFF. If no packets are shown the sender has not sent any weather packets the latest 10 day(s).
| Time | Temp. | Humidity | Pressure | Rain* | Wind** | Luminosity | Snow |
|---|---|---|---|---|---|---|---|
| 1777922156 | 25.56° C | 38% | 1015.8 hPa | 0 mm | - | 889 W/m² | - |
| 1777921855 | 25.56° C | 39% | 1015.9 hPa | 0 mm | - | 890 W/m² | - |
| 1777921556 | 25.56° C | 39% | 1015.9 hPa | 0 mm | - | 909 W/m² | - |
| 1777921256 | 25.56° C | 39% | 1016 hPa | 0 mm | - | 924 W/m² | - |
| 1777920956 | 25.56° C | 38% | 1016.1 hPa | 0 mm | - | 918 W/m² | - |
| 1777920655 | 25.56° C | 39% | 1016.2 hPa | 0 mm | - | 947 W/m² | - |
| 1777920356 | 25° C | 38% | 1016.3 hPa | 0 mm | - | 956 W/m² | - |
| 1777920055 | 25° C | 38% | 1016.3 hPa | 0 mm | - | 963 W/m² | - |
| 1777919756 | 25° C | 39% | 1016.3 hPa | 0 mm | - | 969 W/m² | - |
| 1777919457 | 25° C | 38% | 1016.3 hPa | 0 mm | - | 972 W/m² | - |
| 1777919155 | 24.44° C | 38% | 1016.3 hPa | 0 mm | - | 977 W/m² | - |
| 1777918855 | 25° C | 38% | 1016.4 hPa | 0 mm | - | 987 W/m² | - |
| 1777918555 | 25° C | 39% | 1016.5 hPa | 0 mm | - | 988 W/m² | - |
| 1777918256 | 25° C | 37% | 1016.6 hPa | 0 mm | - | 958 W/m² | - |
| 1777917955 | 24.44° C | 39% | 1016.7 hPa | 0 mm | - | 989 W/m² | - |
| 1777917656 | 24.44° C | 39% | 1016.7 hPa | 0 mm | - | 986 W/m² | - |
| 1777917356 | 24.44° C | 38% | 1016.8 hPa | 0 mm | - | 990 W/m² | - |
| 1777917055 | 24.44° C | 39% | 1016.8 hPa | 0 mm | - | 985 W/m² | - |
| 1777916755 | 24.44° C | 38% | 1016.9 hPa | 0 mm | - | 988 W/m² | - |
| 1777916456 | 24.44° C | 39% | 1017 hPa | 0 mm | - | 989 W/m² | - |
| 1777916155 | 24.44° C | 37% | 1017.1 hPa | 0 mm | - | 991 W/m² | - |
| 1777915856 | 24.44° C | 39% | 1017.1 hPa | 0 mm | - | 982 W/m² | - |
| 1777915556 | 24.44° C | 40% | 1017.1 hPa | 0 mm | - | 982 W/m² | - |
| 1777914966 | 24.44° C | 40% | 1017.3 hPa | 0 mm | - | 976 W/m² | - |
| 1777914656 | 24.44° C | 45% | 1017.4 hPa | 0 mm | - | 972 W/m² | - |
* Rain latest hour (hover to see other rain measurements)
** Current wind speed in m/s (hover to see current wind gust speed)